[[{"header":{"parameterUnit":"m.s-1","parameterCategory":1,"la1":30.2991,"la2":30.254,"lo1":-89.0895,"lo2":-89.0444,"dy":0.0017,"dx":0.0017,"nx":28,"ny":28,"refTime":"2025-12-23T09:00:00:Z","depth":0,"parameterNumber":2,"parameterNumberName":"U-component_of_WINDS"},"data":[0,0,0,0,0,0,0,0,0,0,0,0,0,0,0,0,0,0,0,0,0,0,0,0,0,0,0,0,0,0,0,0,0,0,0,0,0,0,0,0,0,0,0,0,0,0,0,0,0,0,0,0,0,0,0,0,0,0,-0.1814,-0.1814,0,-0.1785,-0.1785,-0.1785,-0.1729,-0.1728,-0.1727,-0.1726,-0.1698,-0.1699,-0.1699,0,0,0,0,0,0,0,0,0,0,0,0,0,-0.1824,-0.1824,-0.1814,-0.1814,-0.1814,-0.1785,-0.1785,-0.1784,-0.1729,-0.1728,-0.1727,-0.1725,-0.1698,-0.1699,-0.1699,0,0,0,0,0,0,0,0,0,0,0,0,0,-0.181,-0.1824,-0.1815,-0.1783,-0.178,-0.1785,-0.1785,-0.1784,-0.173,-0.1728,-0.1726,-0.1725,-0.1698,-0.1698,-0.1699,-0.1734,0,0,-0.17,-0.17,0,0,0,0,0,0,0,0,-0.1811,-0.181,-0.1788,-0.1785,-0.1781,-0.1759,-0.1778,-0.1768,-0.173,-0.1749,-0.1726,-0.1724,-0.172,-0.1718,-0.1717,-0.1733,-0.1731,-0.17,-0.17,-0.1701,-0.1701,0,0,0,0,0,0,0,-0.1812,-0.181,-0.1803,-0.1788,-0.1784,-0.177,-0.1767,-0.1776,-0.1744,-0.1747,-0.1743,-0.174,-0.1718,-0.1716,-0.1716,-0.1731,-0.17,-0.17,-0.1701,-0.1701,-0.1773,-0.1775,0,0,0,0,0,0,-0.1817,-0.1812,-0.1804,-0.1802,-0.1792,-0.1772,-0.1767,-0.1768,-0.1744,-0.1738,-0.1741,-0.1738,-0.1716,-0.1715,-0.1714,-0.1753,-0.1701,-0.1701,-0.1701,-0.1772,-0.1774,-0.1776,0,0,0,0,0,0,-0.1818,-0.1817,-0.1805,-0.1806,-0.1803,-0.1773,-0.1774,-0.1768,-0.1767,-0.1739,-0.1734,-0.1746,-0.1715,-0.1714,-0.1729,-0.1752,-0.1701,-0.1701,-0.177,-0.1772,-0.1775,-0.1832,0,0,0,0,0,0,-0.1818,-0.1817,-0.183,-0.1806,-0.1803,-0.182,-0.1776,-0.1769,-0.1767,-0.1762,-0.1742,-0.1737,-0.1714,-0.1729,-0.173,-0.1751,-0.1702,-0.1768,-0.1771,-0.1774,-0.1828,-0.1836,-0.1843,0,0,0,0,0,-0.1819,-0.1848,-0.1831,-0.1831,-0.1819,-0.1822,-0.182,-0.1792,-0.1769,-0.1782,-0.1764,-0.1738,-0.1749,-0.1731,-0.1731,-0.1754,-0.1766,-0.177,-0.1774,-0.1825,-0.1835,-0.1843,0,0,0,0,0,0,-0.1877,-0.1845,-0.1825,-0.1848,-0.1838,-0.1812,-0.1827,-0.1804,-0.18,-0.1795,-0.1761,-0.1757,-0.1777,-0.1767,-0.1747,-0.1786,-0.1753,-0.1757,-0.1792,-0.1801,-0.1809,-0.1811,-0.1702,0,0,0,0,0,-0.1892,-0.1896,-0.1868,-0.1891,-0.1887,-0.1858,-0.1858,-0.1838,-0.1826,-0.1822,-0.1805,-0.1795,-0.1796,-0.1798,-0.1798,-0.1826,-0.1821,-0.1841,-0.1849,-0.1856,-0.186,-0.1873,-0.1882,-0.1788,-0.1788,-0.1788,0,0,-0.1924,-0.1907,-0.1912,-0.1902,-0.1892,-0.1898,-0.1855,-0.1863,-0.1867,-0.1823,-0.1836,-0.1824,-0.1811,-0.1832,-0.1841,-0.1824,-0.1884,-0.186,-0.1866,-0.1866,-0.1878,-0.1887,-0.1895,-0.1791,-0.179,-0.179,0,0,-0.1985,-0.1973,-0.199,-0.198,-0.1964,-0.1945,-0.1949,-0.1927,-0.1917,-0.1929,-0.1896,-0.19,-0.1903,-0.1895,-0.1891,-0.1948,-0.1923,-0.1949,-0.1989,-0.2003,-0.2011,-0.2017,-0.2037,-0.2045,-0.1953,-0.1953,-0.1953,0,-0.2027,-0.2034,-0.2002,-0.2012,-0.2009,-0.1968,-0.1985,-0.1977,-0.1963,-0.1962,-0.1943,-0.1945,-0.1933,-0.1952,-0.1966,-0.1964,-0.1968,-0.1952,-0.2012,-0.2018,-0.2024,-0.2043,-0.205,-0.1956,-0.1956,-0.1956,-0.1955,0,-0.2086,-0.2092,-0.2108,-0.2094,-0.2092,-0.2106,-0.2076,-0.2078,-0.2058,-0.204,-0.2053,-0.2037,-0.2033,-0.2036,-0.2016,-0.2052,-0.2042,-0.2018,-0.1985,-0.2036,-0.2054,-0.2061,-0.1961,-0.196,-0.1959,-0.1958,0,0,-0.2185,-0.2152,-0.2158,-0.2151,-0.213,-0.2134,-0.2146,-0.214,-0.2143,-0.2134,-0.2143,-0.2146,-0.2123,-0.2119,-0.2098,-0.211,-0.2156,-0.2084,-0.2083,-0.2098,-0.2194,-0.2213,-0.2222,-0.2139,-0.214,-0.2141,-0.2196,0,-0.2242,-0.226,-0.2231,-0.2255,-0.226,-0.222,-0.223,-0.2219,-0.2203,-0.2204,-0.2186,-0.2189,-0.2159,-0.2156,-0.2166,-0.2148,-0.2175,-0.2144,-0.2147,-0.2148,-0.2153,-0.2231,-0.2251,-0.2304,-0.2202,-0.2203,-0.2204,0,-0.2312,-0.2305,-0.233,-0.2306,-0.2307,-0.2317,-0.2309,-0.2311,-0.2297,-0.2284,-0.2279,-0.2253,-0.2263,-0.223,-0.2244,-0.2223,-0.2223,-0.2214,-0.2216,-0.2216,-0.218,-0.2234,-0.232,-0.2328,-0.2215,-0.2214,-0.2213,0,-0.2381,-0.2378,-0.2393,-0.2388,-0.2361,-0.2369,-0.2358,-0.2342,-0.2341,-0.2334,-0.2333,-0.2328,-0.2325,-0.2322,-0.2296,-0.2274,-0.2312,-0.2277,-0.2302,-0.2303,-0.2313,-0.2313,-0.2401,-0.2312,-0.2312,-0.2312,-0.2312,0,-0.2448,-0.2465,-0.2423,-0.2433,-0.245,-0.2416,-0.2435,-0.242,-0.2406,-0.2412,-0.2377,-0.2384,-0.2348,-0.235,-0.2329,-0.2344,-0.2343,-0.2333,-0.2327,-0.2336,-0.2338,-0.2337,-0.2332,-0.2314,-0.2313,-0.2313,-0.2313,0,-0.253,-0.2502,-0.2515,-0.2488,-0.2482,-0.2496,-0.2473,-0.2481,-0.2461,-0.2469,-0.2469,-0.2439,-0.244,-0.2413,-0.2408,-0.2394,-0.2418,-0.2405,-0.2423,-0.2419,-0.2446,-0.2444,-0.2536,-0.2547,-0.2451,-0.2452,-0.2453,0,-0.2575,-0.2587,-0.2561,-0.2561,-0.2552,-0.2554,-0.2552,-0.2519,-0.2518,-0.2502,-0.2512,-0.2509,-0.2506,-0.2509,-0.2487,-0.2484,-0.2471,-0.2504,-0.2471,-0.2479,-0.2472,-0.2472,-0.2473,-0.2511,-0.2512,-0.2513,-0.2514,0,-0.2658,-0.2644,-0.2641,-0.2634,-0.2632,-0.2626,-0.2616,-0.2619,-0.2583,-0.2584,-0.2584,-0.2581,-0.2576,-0.2574,-0.2566,-0.2555,-0.2529,-0.2525,-0.253,-0.254,-0.255,-0.2545,-0.2442,-0.2523,-0.2522,-0.2521,-0.2521,-0.2521,-0.2723,-0.2731,-0.2714,-0.2713,-0.2702,-0.2694,-0.2699,-0.268,-0.2679,-0.2672,-0.2652,-0.2656,-0.264,-0.2627,-0.2618,-0.262,-0.2604,-0.2612,-0.2614,-0.2617,-0.2622,-0.2549,-0.2619,-0.2618,-0.2618,-0.2618,-0.2618,0,-0.2805,-0.2791,-0.279,-0.2778,-0.2777,-0.2751,-0.2739,-0.274,-0.2743,-0.273,-0.2727,-0.2727,-0.2724,-0.2702,-0.2697,-0.2703,-0.2691,-0.2703,-0.2703,-0.2701,-0.2637,-0.2633,-0.2713,-0.2713,-0.2713,-0.2713,-0.2713,-0.2713,-0.2847,-0.286,-0.2843,-0.285,-0.2837,-0.2839,-0.2834,-0.2827,-0.2817,-0.2817,-0.2815,-0.28,-0.2784,-0.2777,-0.2774,-0.2767,-0.2768,-0.2784,-0.2773,-0.2715,-0.2705,-0.2697,-0.2692,-0.2784,-0.2784,-0.2837,-0.2838,-0.2838]},{"header":{"parameterUnit":"m.s-1","parameterCategory":1,"la1":30.2991,"la2":30.254,"lo1":-89.0895,"lo2":-89.0444,"dy":0.0017,"dx":0.0017,"nx":28,"ny":28,"refTime":"2025-12-23T09:00:00:Z","depth":0,"parameterNumber":3,"parameterNumberName":"V-component_of_WINDS"},"data":[0,0,0,0,0,0,0,0,0,0,0,0,0,0,0,0,0,0,0,0,0,0,0,0,0,0,0,0,0,0,0,0,0,0,0,0,0,0,0,0,0,0,0,0,0,0,0,0,0,0,0,0,0,0,0,0,0,0,-1.0056,-1.0056,0,-1.0085,-1.0085,-1.0086,-1.0074,-1.0073,-1.0072,-1.0072,-1.0102,-1.0103,-1.0105,0,0,0,0,0,0,0,0,0,0,0,0,0,-0.9989,-0.999,-1.0056,-1.0056,-1.0056,-1.0085,-1.0085,-1.0086,-1.0074,-1.0073,-1.0072,-1.0071,-1.0101,-1.0103,-1.0105,0,0,0,0,0,0,0,0,0,0,0,0,0,-1.0018,-0.9991,-1.0056,-1.0054,-1.0054,-1.0085,-1.0085,-1.0086,-1.0074,-1.0073,-1.0072,-1.0071,-1.0101,-1.0103,-1.0105,-1.014,0,0,-1.0112,-1.0113,0,0,0,0,0,0,0,0,-1.0016,-1.002,-1.0054,-1.0054,-1.0054,-1.0075,-1.0073,-1.0104,-1.0074,-1.0066,-1.0072,-1.007,-1.0094,-1.0096,-1.0104,-1.0141,-1.0142,-1.0112,-1.0113,-1.0114,-1.0115,0,0,0,0,0,0,0,-1.0014,-1.0019,-1.0067,-1.0054,-1.0055,-1.0051,-1.0054,-1.0079,-1.0085,-1.0067,-1.0066,-1.007,-1.0094,-1.0102,-1.0105,-1.0143,-1.0112,-1.0114,-1.0115,-1.0116,-1.0209,-1.0211,0,0,0,0,0,0,-1.0012,-1.0018,-1.0066,-1.0068,-1.0032,-1.0054,-1.0057,-1.0069,-1.0085,-1.0087,-1.0071,-1.0069,-1.0099,-1.0102,-1.0106,-1.0147,-1.0114,-1.0116,-1.0117,-1.0208,-1.021,-1.0211,0,0,0,0,0,0,-1.0011,-1.0017,-1.0065,-1.0043,-1.0049,-1.0056,-1.007,-1.007,-1.0079,-1.0088,-1.0089,-1.0078,-1.0098,-1.0103,-1.0131,-1.0148,-1.0117,-1.0119,-1.0207,-1.0209,-1.021,-1.0231,0,0,0,0,0,0,-1.0009,-1.0016,-1.003,-1.0043,-1.005,-1.009,-1.0071,-1.0072,-1.0083,-1.0081,-1.0095,-1.0097,-1.0098,-1.0128,-1.0133,-1.0151,-1.0121,-1.0205,-1.0208,-1.021,-1.0229,-1.0233,-1.0237,0,0,0,0,0,-1.0007,-1.0034,-1.003,-1.0036,-1.0067,-1.0091,-1.0095,-1.0096,-1.0084,-1.0097,-1.0103,-1.0096,-1.0145,-1.0131,-1.0137,-1.0155,-1.0204,-1.0207,-1.021,-1.0227,-1.0232,-1.0237,0,0,0,0,0,0,-1.0023,-1.0036,-1.0032,-1.0065,-1.0077,-1.0089,-1.0106,-1.0101,-1.0117,-1.0115,-1.0115,-1.0118,-1.0148,-1.0154,-1.0138,-1.019,-1.0173,-1.0177,-1.0184,-1.019,-1.0194,-1.0192,-1.0123,0,0,0,0,0,-1.003,-1.0049,-1.006,-1.0087,-1.0094,-1.0099,-1.011,-1.0109,-1.0122,-1.0127,-1.0135,-1.0148,-1.0166,-1.0178,-1.0195,-1.023,-1.0233,-1.0245,-1.0249,-1.0252,-1.0256,-1.0275,-1.0281,-1.022,-1.022,-1.022,0,0,-1.0045,-1.0055,-1.0067,-1.0091,-1.01,-1.012,-1.0103,-1.0125,-1.014,-1.013,-1.0158,-1.0164,-1.0178,-1.021,-1.0224,-1.0216,-1.0273,-1.0256,-1.0258,-1.026,-1.0278,-1.0284,-1.0289,-1.0221,-1.0221,-1.0221,0,0,-1.0084,-1.0093,-1.0117,-1.0127,-1.0141,-1.0144,-1.015,-1.0163,-1.0167,-1.0195,-1.0188,-1.0205,-1.0237,-1.0247,-1.0257,-1.0299,-1.0293,-1.0304,-1.0326,-1.0344,-1.0349,-1.0353,-1.0369,-1.0374,-1.0308,-1.0308,-1.0308,0,-1.0101,-1.013,-1.013,-1.0152,-1.0163,-1.0155,-1.018,-1.0189,-1.0209,-1.0216,-1.0207,-1.0246,-1.0255,-1.0289,-1.03,-1.0307,-1.0314,-1.0303,-1.0348,-1.0353,-1.0357,-1.0371,-1.0377,-1.0309,-1.0309,-1.0309,-1.0309,0,-1.0151,-1.0171,-1.0189,-1.0208,-1.0221,-1.0244,-1.0247,-1.026,-1.0258,-1.0263,-1.0291,-1.0301,-1.0321,-1.0328,-1.0327,-1.0362,-1.0357,-1.0348,-1.0332,-1.0364,-1.0377,-1.0383,-1.0311,-1.031,-1.031,-1.031,0,0,-1.02,-1.0219,-1.0225,-1.0234,-1.0249,-1.0265,-1.0288,-1.0307,-1.0318,-1.0332,-1.0351,-1.0378,-1.0369,-1.038,-1.038,-1.0396,-1.0428,-1.0385,-1.0385,-1.0393,-1.0469,-1.0476,-1.0482,-1.0424,-1.0426,-1.0426,-1.0468,0,-1.024,-1.028,-1.028,-1.0317,-1.0336,-1.0329,-1.0349,-1.0361,-1.0365,-1.0382,-1.0387,-1.0406,-1.0393,-1.04,-1.0415,-1.0421,-1.0444,-1.0418,-1.0443,-1.0444,-1.044,-1.0489,-1.0497,-1.0535,-1.0473,-1.0474,-1.0474,0,-1.0292,-1.0307,-1.0346,-1.0358,-1.0366,-1.0384,-1.0402,-1.0418,-1.0431,-1.0433,-1.0445,-1.0442,-1.0465,-1.0447,-1.048,-1.0462,-1.0472,-1.0477,-1.0478,-1.0481,-1.0461,-1.0494,-1.0547,-1.0553,-1.0483,-1.0482,-1.0482,0,-1.0324,-1.0354,-1.0382,-1.0389,-1.0405,-1.0417,-1.0424,-1.0436,-1.0448,-1.0463,-1.047,-1.0488,-1.0498,-1.0511,-1.0513,-1.05,-1.0546,-1.0528,-1.0548,-1.0548,-1.0559,-1.0558,-1.0615,-1.0564,-1.0564,-1.0564,-1.0564,0,-1.0369,-1.0393,-1.0397,-1.0413,-1.044,-1.044,-1.0467,-1.0473,-1.0483,-1.0501,-1.0496,-1.0513,-1.0514,-1.0531,-1.0533,-1.0559,-1.0564,-1.0566,-1.0567,-1.0567,-1.0567,-1.0574,-1.0572,-1.0566,-1.0565,-1.0565,-1.0565,0,-1.041,-1.0413,-1.0442,-1.0455,-1.0458,-1.0477,-1.0488,-1.0504,-1.0508,-1.053,-1.0536,-1.0542,-1.0562,-1.0565,-1.0588,-1.0589,-1.0622,-1.0619,-1.0617,-1.0617,-1.0637,-1.0636,-1.0701,-1.071,-1.0653,-1.0654,-1.0654,0,-1.0438,-1.0457,-1.0471,-1.0482,-1.049,-1.0508,-1.052,-1.0521,-1.0533,-1.0549,-1.0563,-1.0583,-1.0599,-1.0631,-1.0638,-1.0656,-1.0654,-1.0676,-1.0656,-1.0657,-1.0655,-1.0654,-1.0656,-1.0679,-1.068,-1.0681,-1.0681,0,-1.0488,-1.0489,-1.0506,-1.0523,-1.0537,-1.0551,-1.0564,-1.0574,-1.0576,-1.059,-1.0611,-1.0623,-1.0647,-1.0667,-1.0685,-1.0692,-1.0687,-1.0687,-1.0692,-1.0694,-1.0692,-1.0694,-1.0628,-1.0685,-1.0685,-1.0685,-1.0684,-1.0684,-1.0524,-1.054,-1.0553,-1.0572,-1.0581,-1.0594,-1.061,-1.0615,-1.0632,-1.0652,-1.0651,-1.0674,-1.0687,-1.071,-1.0719,-1.0736,-1.0729,-1.0737,-1.074,-1.0742,-1.0744,-1.0689,-1.074,-1.0739,-1.0739,-1.0739,-1.0739,0,-1.0574,-1.0582,-1.0599,-1.0618,-1.0633,-1.0626,-1.064,-1.0654,-1.0674,-1.0686,-1.0701,-1.0725,-1.0744,-1.0752,-1.0771,-1.0783,-1.0782,-1.0788,-1.0788,-1.079,-1.0749,-1.0742,-1.0789,-1.0789,-1.0789,-1.0789,-1.0789,-1.0789,-1.0602,-1.0629,-1.0631,-1.0663,-1.0671,-1.0693,-1.0702,-1.0713,-1.0723,-1.0749,-1.0765,-1.077,-1.0781,-1.08,-1.0817,-1.0819,-1.0826,-1.0834,-1.0835,-1.0797,-1.0792,-1.0787,-1.0781,-1.0836,-1.0836,-1.0874,-1.0875,-1.0875]}]]